This is the latest recevied weather packets stored in our database for station/object KD2DXJ. If no packets are shown the sender has not sent any weather packets the latest 10 day(s).
| Time | Temp. | Humidity | Pressure | Rain* | Wind** | Luminosity | Snow |
|---|---|---|---|---|---|---|---|
| 1778036719 | 7.78° C | 99% | 1009.2 hPa | 1.27 mm | - | 0 W/m² | - |
| 1778036416 | 7.78° C | 99% | 1009.1 hPa | 1.27 mm | - | 0 W/m² | - |
| 1778036113 | 7.78° C | 99% | 1009.2 hPa | 0 mm | - | 0 W/m² | - |
| 1778035809 | 7.78° C | 99% | 1009.1 hPa | 0 mm | - | 0 W/m² | - |
| 1778035507 | 7.78° C | 99% | 1009.2 hPa | 1.27 mm | - | 0 W/m² | - |
| 1778035202 | 7.78° C | 99% | 1009.1 hPa | 1.27 mm | - | 0 W/m² | - |
| 1778034899 | 7.78° C | 99% | 1009 hPa | 1.78 mm | - | 0 W/m² | - |
| 1778034596 | 7.78° C | 99% | 1008.8 hPa | 1.78 mm | - | 0 W/m² | - |
| 1778034294 | 7.78° C | 99% | 1008.9 hPa | 1.27 mm | - | 0 W/m² | - |
| 1778033991 | 7.78° C | 99% | 1008.9 hPa | 2.29 mm | - | 0 W/m² | - |
| 1778033688 | 7.78° C | 99% | 1009.2 hPa | 1.27 mm | - | 0 W/m² | - |
| 1778033385 | 7.78° C | 99% | 1008.9 hPa | 1.78 mm | - | 0 W/m² | - |
| 1778033083 | 7.78° C | 99% | 1009 hPa | 1.78 mm | - | 0 W/m² | - |
| 1778032780 | 8.33° C | 99% | 1008.9 hPa | 1.27 mm | - | 0 W/m² | - |
| 1778032477 | 8.33° C | 99% | 1008.8 hPa | 3.05 mm | - | 0 W/m² | - |
| 1778032174 | 8.33° C | 99% | 1008.7 hPa | 3.05 mm | - | 0 W/m² | - |
| 1778031871 | 8.33° C | 99% | 1008.8 hPa | 2.29 mm | - | 0 W/m² | - |
| 1778031567 | 8.33° C | 99% | 1008.7 hPa | 3.05 mm | - | 0 W/m² | - |
| 1778031266 | 8.33° C | 99% | 1008.8 hPa | 3.05 mm | - | 0 W/m² | - |
| 1778030962 | 8.33° C | 99% | 1008.7 hPa | 3.05 mm | - | 0 W/m² | - |
| 1778030658 | 8.33° C | 99% | 1008.6 hPa | 3.05 mm | - | 0 W/m² | - |
| 1778030355 | 8.33° C | 99% | 1008.8 hPa | 1.27 mm | - | 0 W/m² | - |
| 1778030053 | 8.89° C | 99% | 1008.6 hPa | 1.27 mm | - | 0 W/m² | - |
| 1778029749 | 8.33° C | 99% | 1008.7 hPa | 3.05 mm | - | 0 W/m² | - |
| 1778029448 | 8.89° C | 98% | 1008.6 hPa | 3.05 mm | - | 0 W/m² | - |
* Rain latest hour (hover to see other rain measurements)
** Current wind speed in m/s (hover to see current wind gust speed)